Home   Weather   Svolvær   Past weeks

Flag for Norway Past Weather in Svolvær, Norway — Yesterday and Last 2 Weeks

Now
38 °F

Chilly.


Feels Like: 38 °F
Forecast: 28 / 40 °F
Wind: 1 mph from Northwest

Location: Skrova Fyr

Current Time: Jan 23, 2017 at 3:52:38 am

Latest Report: Jan 23, 2017 at 3:00 am


Visibility: N/A

Pressure: 29.47 "Hg

Humidity: 97%

Dew Point: 38 °F

Location of SvolværLocation

Past Weather in Svolvær — Graph

°F

Svolvær Temperature Yesterday

Maximum temperature yesterday: 40 °F (at 11:00 pm)
Minimum temperature yesterday: 30 °F (at 7:00 am)
Average temperature yesterday: 33 °F

High & Low Weather Summary for the Past Weeks

 TemperatureHumidityPressure
High45 °F (Jan 18, 1:00 pm)100% (Jan 8, 11:00 am)30.13 "Hg (Jan 8, 11:00 am)
Low28 °F (Jan 19, 5:00 pm)53% (Jan 8, 5:00 pm)28.67 "Hg (Jan 12, 6:00 am)
Average35 °F83%29.47 "Hg
* Reported Jan 8 2:00 am — Jan 23 2:00 am, Svolvær, Weather by CustomWeather, © 2017

Note: Actual official high and low records may vary slightly from our data, if they occured in-between our weather recording intervals... More about our weather records

Advertising

Svolvær Weather History for the Previous 24 Hours

Scroll right to see more
 ConditionsComfort  
Time TempWeatherWind HumidityBarometerVisibility
2:00 am
Mon, Jan 23
38 °FChilly.6 mph99%29.47 "HgN/A
1:00 am40 °FQuite cool.6 mph99%29.50 "HgN/A
12:00 am40 °FQuite cool.5 mph98%29.50 "HgN/A
11:00 pm
Sun, Jan 22
40 °FQuite cool.3 mph92%29.54 "HgN/A
10:00 pm40 °FChilly.6 mph96%29.56 "HgN/A
9:00 pm38 °FChilly.8 mph96%29.57 "HgN/A
8:00 pm38 °FChilly.2 mph99%29.58 "HgN/A
7:00 pm36 °FPassing clouds.2 mph99%29.59 "Hg47 mi
6:00 pm36 °FChilly.2 mph99%29.60 "HgN/A
5:00 pm35 °FChilly.3 mph100%29.62 "HgN/A
4:00 pm34 °FChilly.2 mph99%29.62 "HgN/A
3:00 pm33 °FChilly.6 mph100%29.62 "HgN/A
2:00 pm34 °FChilly.7 mph99%29.64 "HgN/A
1:00 pm33 °FOvercast.7 mph100%29.67 "Hg47 mi
12:00 pm32 °FChilly.8 mph99%29.70 "HgN/A
11:00 am32 °FChilly.9 mph100%29.72 "HgN/A
10:00 am31 °FChilly.8 mph99%29.74 "HgN/A
9:00 am31 °FChilly.9 mph99%29.75 "HgN/A
8:00 am30 °FChilly.10 mph99%29.77 "HgN/A
7:00 am30 °FOvercast.12 mph99%29.78 "Hg47 mi
6:00 am31 °FChilly.9 mph99%29.80 "HgN/A
5:00 am31 °FChilly.10 mph99%29.83 "HgN/A
4:00 am31 °FChilly.7 mph100%29.86 "HgN/A
3:00 am30 °FChilly.7 mph99%29.89 "HgN/A
Weather by CustomWeather, © 2017

See weather overviewHow to use our weather pages